Вернуться в каталог

FENGYUN 1C DEB

АктивенSSO
NORAD 31686·DEBRIS·🇨🇳 China

Запущен May 10, 1999 с Taiyuan Satellite Launch Center

Loading…

Ближайшие Пролёты (ближайшие 24 часа)

TLE

СвежийSource: Space-Track

Эпоха: Sep 11, 2026, 11:38 UTC

1 31686U 99025CCU 26254.48487984  .00003168  00000-0  25938-3 0  9998
2 31686  98.1251 332.6349 0266007 296.3333  73.4244 14.76444532 18308

Отслеживайте FENGYUN 1C DEB в реальном времени с AllMySat

Download on the App Store